User: anonymous   Login
Location: ?
(35.4064°N, 139.3593°E)
Time: 12:56:40
(UTC+00:00)
Language:

ADEOS II - Orbit

View from above orbital plane
View from above orbital plane
View from above satellite
View from above satellite

Ground track
Ground track

The orbit data is extracted from the following two-line orbital elements,

1 27597U 02056A   24175.83239056  .00000388  00000-0  17294-3 0  9993
2 27597  98.6920 122.4915 0001878  56.7571 303.3790 14.28384145121206
Epoch (UTC): 23 June 2024 19:58:38
Eccentricity: 0.0001878
inclination: 98.6920°
perigee height: 796 km
apogee height: 798 km
right ascension of ascending node: 122.4915°
argument of perigee: 56.7571°
revolutions per day: 14.28384145
mean anomaly at epoch: 303.3790°
orbit number at epoch: 12120

The dashed part of the orbit path shows where the satellite is in the earth's shadow,  

DLR